WP4MXZ San Sebastian PR US current weather conditions

sailwx.info

Wind from 142 at 3 knots gusting 10

Air temperature 32.8° C
Dewpoint 26.3° C

Last reported at 2015-Aug-03 18:33 UTC.
Time now 2015-Aug-03 19:10 UTC

Location: N 18°20' W 067°00'.
View on Google Maps.

See reports from other nearby stations

  
Tides and Currents Weather Stations Pressure Air Temp Water Temp Dewpoint Dewpoint Depression Visibility Wind Speed Wind Dir Waves Ship Positions
date/time (UTC)wind fromknots sea level pressurealtimeterstation pressurevisibilityair tempwater tempwave heightnotes
2015-Aug-03 18:33 142 3 gusting 10 32.8
2015-Aug-03 18:03 122 2 gusting 5 33.9
2015-Aug-03 17:33 138 1 gusting 7 33.9
2015-Aug-03 17:04 089 1 gusting 6 33.3
2015-Aug-03 16:33 199 33.9
2015-Aug-03 16:03 161 0 gusting 6 32.8
2015-Aug-03 15:33 159 1 gusting 6 32.2
2015-Aug-03 15:03 120 0 gusting 9 31.7
2015-Aug-03 14:33 148 2 gusting 7 31.1
2015-Aug-03 14:03 198 1 gusting 6 30.0
2015-Aug-03 13:33 180 0 gusting 6 29.4
2015-Aug-03 13:03 181 1 gusting 6 28.9
2015-Aug-03 12:33 181 27.8
2015-Aug-03 12:03 255 25.0
2015-Aug-03 11:33 255 23.3
2015-Aug-03 11:03 249 22.2
2015-Aug-03 10:33 249 21.7
2015-Aug-03 10:03 249 21.7
2015-Aug-03 09:33 249 21.7
2015-Aug-03 09:03 249 21.7
2015-Aug-03 08:33 249 21.7
2015-Aug-03 08:03 249 21.7
2015-Aug-03 07:33 249 21.7
2015-Aug-03 07:03 249 21.7
2015-Aug-03 06:33 249 22.2
2015-Aug-03 06:03 249 22.2
2015-Aug-03 05:33 249 22.2
2015-Aug-03 05:03 249 22.2
2015-Aug-03 04:33 249 22.2
2015-Aug-03 04:03 249 22.8
2015-Aug-03 03:33 249 23.3
2015-Aug-03 03:03 249 23.3
2015-Aug-03 02:33 249 23.3
2015-Aug-03 02:03 249 23.3
2015-Aug-03 01:33 249 23.3
2015-Aug-03 01:03 249 23.3
2015-Aug-03 00:33 249 23.3
2015-Aug-03 00:03 249 23.9
2015-Aug-02 23:33 249 24.4
2015-Aug-02 23:03 249 25.0
2015-Aug-02 22:33 335 25.0
2015-Aug-02 22:03 335 25.0
2015-Aug-02 21:33 335 25.0
2015-Aug-02 21:04 030 24.4
2015-Aug-02 20:33 158 24.4
2015-Aug-02 20:03 158 23.9
2015-Aug-02 19:33 147 23.9
2015-Aug-02 19:03 242 23.9
2015-Aug-02 18:33 310 0 26.7
2015-Aug-02 18:04 072 30.0
2015-Aug-02 17:33 106 5 30.6
2015-Aug-02 17:03 125 6 31.1
2015-Aug-02 16:33 094 0 31.1
2015-Aug-02 16:03 152 7 31.7
2015-Aug-02 15:33 072 2 30.6
2015-Aug-02 15:03 176 0 30.6
2015-Aug-02 14:33 195 1 30.0
2015-Aug-02 14:03 155 29.4
2015-Aug-02 13:33 193 3 28.3
2015-Aug-02 13:03 163 0 27.8
2015-Aug-02 12:33 138 27.8
2015-Aug-02 12:03 173 27.2
2015-Aug-02 11:33 213 25.6
2015-Aug-02 11:03 220 22.8
2015-Aug-02 10:33 220 21.7
2015-Aug-02 10:03 220 21.7
2015-Aug-02 09:33 220 21.7
2015-Aug-02 09:03 220 22.2
2015-Aug-02 08:33 207 22.2
2015-Aug-02 08:03 207 22.8
2015-Aug-02 07:33 207 22.8
2015-Aug-02 07:03 231 23.3
2015-Aug-02 06:33 231 23.3
2015-Aug-02 06:03 231 23.9
2015-Aug-02 05:33 231 23.9
2015-Aug-02 05:03 231 23.9
2015-Aug-02 04:33 231 24.4
2015-Aug-02 04:03 231 24.4
2015-Aug-02 03:33 231 24.4
2015-Aug-02 03:03 231 25.0
2015-Aug-02 02:33 231 25.0
2015-Aug-02 02:03 231 25.6
2015-Aug-02 01:33 225 26.1
2015-Aug-02 01:03 214 27.2
2015-Aug-02 00:33 138 27.2
2015-Aug-02 00:03 163 0 gusting 6 27.8
2015-Aug-01 23:34 145 4 gusting 9 27.8
2015-Aug-01 23:03 143 2 gusting 10 28.3
2015-Aug-01 22:33 117 3 gusting 6 28.9
2015-Aug-01 21:33 100 0 gusting 6 29.4
2015-Aug-01 21:03 126 2 gusting 7 30.0
2015-Aug-01 20:34 061 2 gusting 7 30.0
2015-Aug-01 20:03 326 0 gusting 2 30.6
2015-Aug-01 19:33 359 31.1
2015-Aug-01 19:03 117 30.6